Regional Weather Roundup
Issued by NWS Sioux Falls, SD

Home | Current Version | Previous Version | Graphics & Text | Print | Product List | Glossary Off
Versions: 1 2 3 4 5 6 7 8 9 10 11 12 13 14 15 16 17 18 19 20 21 22 23 24 25 26 27 28 29 30 31 32 33 34 35 36 37 38 39 40 41 42 43 44 45 46 47 48 49 50

000
ASUS43 KFSD 211002
RWRFSD

WEATHER ROUNDUP FOR SE SOUTH DAKOTA/SW MINNESOTA/NW IOWA
NATIONAL WEATHER SERVICE SIOUX FALLS SD
500 AM CDT SAT APR 21 2018

NOTE: "FAIR" INDICATES FEW OR NO CLOUDS BELOW 12,000 FEET WITH NO
SIGNIFICANT WEATHER AND OR OBSTRUCTIONS TO VISIBILITY.


SDZ038>040-050-052>070-211100-
SOUTHEAST SOUTH DAKOTA

CITY           SKY/WX    TMP DP  RH WIND       PRES   REMARKS
BROOKINGS      CLOUDY    37  32  82 E5        30.37S
CHAMBERLAIN    CLOUDY    41  41 100 E6        30.32S
HURON          CLOUDY    40  36  86 SE8       30.33F
MADISON        LGT RAIN  36  36 100 E5        30.37R
MITCHELL       CLOUDY    38  35  89 E8        30.35S
SIOUX FALLS    CLOUDY    38  31  76 E7        30.36F
WINNER         CLOUDY    41  35  79 CALM      30.29F
YANKTON        CLOUDY    40  36  86 NE8       30.32F
$$

MNZ071-072-080-081-089-090-097-098-211100-
SOUTHWEST MINNESOTA

CITY           SKY/WX    TMP DP  RH WIND       PRES   REMARKS
FAIRMONT       CLOUDY    36  28  73 CALM      30.41R
JACKSON        CLOUDY    36  30  80 CALM      30.40R
LUVERNE        DRIZZLE   36  32  87 CALM      30.39S
MARSHALL       CLOUDY    37  30  75 S5        30.38F
MONTEVIDEO     CLOUDY    34  30  86 CALM      30.39F
PIPESTONE      LGT RAIN N/A N/A N/A S8        30.37R
REDWOOD FALLS  PTCLDY    34  29  82 E3        30.39F
TRACY          CLOUDY    40  30  67 S9        30.37F
WINDOM         CLOUDY    37  19  48 CALM      30.39S
WORTHINGTON    CLOUDY    38  28  67 S5        30.39S
$$

IAZ001>003-012>014-020>022-031-032-NEZ013-014-SDZ071-211100-
NORTHWEST IOWA

CITY           SKY/WX    TMP DP  RH WIND       PRES   REMARKS
CHEROKEE       CLOUDY    37  32  79 NE6       30.36F
DENISON        CLOUDY    43  36  75 NE6       30.34R
ESTHERVILLE    CLOUDY    34  29  82 N5        30.40R WCI  30
LE MARS        CLOUDY    41  32  70 NE5       30.34F
ORANGE CITY    CLOUDY    39  34  81 E8        30.35F
SHELDON        CLOUDY    37  32  81 E9        30.35F
SIOUX CITY     CLOUDY    43  32  65 E10       30.31F
SPENCER        CLOUDY    37  30  75 NE5       30.39S
STORM LAKE     CLOUDY    36  32  87 NE9       30.35F
$$

ABBREVIATIONS USED IN REMARKS
   TC - TEMPERATURE IN CELSIUS
  WCI - WIND CHILL INDEX
   HX - HEAT INDEX
  VSB - VISIBILITY




USA.gov is the U.S. government's official web portal to all federal, state and local government web resources and services.